Satellite-Ground Cal/Val Region Overpasses Predictions

Prediction of Satellite NPP Overpassing Cal/Val Region: PacNW

Region Location: (Latitude: 10.00, Longitude: 139.50) to (Latitude: 22.70, Longitude: 165.60).

Table of predicted overpasses for the next 14.0 days since TLE Epoch: 10/23/2021
Interval Starting Time Starting Location Ending Time Ending Location
1 10/23/2021 03:37:31 ( 10.01, 145.45) 10/23/2021 03:41:07 ( 22.69, 142.43)
2 10/23/2021 14:30:51 ( 12.38, 165.59) 10/23/2021 14:31:31 ( 10.03, 165.05)
3 10/23/2021 16:09:26 ( 22.65, 142.68) 10/23/2021 16:13:01 ( 10.03, 139.67)
4 10/24/2021 03:18:31 ( 10.00, 150.20) 10/24/2021 03:22:07 ( 22.68, 147.18)
5 10/24/2021 15:50:26 ( 22.65, 147.43) 10/24/2021 15:54:01 ( 10.03, 144.43)
6 10/25/2021 02:59:30 ( 10.00, 154.96) 10/25/2021 03:03:06 ( 22.68, 151.94)
7 10/25/2021 15:31:25 ( 22.66, 152.19) 10/25/2021 15:35:00 ( 10.04, 149.18)
8 10/26/2021 02:40:31 ( 10.05, 159.70) 10/26/2021 02:44:06 ( 22.68, 156.69)
9 10/26/2021 15:12:25 ( 22.66, 156.94) 10/26/2021 15:16:00 ( 10.04, 153.94)
10 10/27/2021 02:21:30 ( 10.05, 164.45) 10/27/2021 02:25:05 ( 22.67, 161.45)
11 10/27/2021 14:53:24 ( 22.66, 161.70) 10/27/2021 14:56:59 ( 10.04, 158.69)
12 10/28/2021 03:44:00 ( 10.05, 143.83) 10/28/2021 03:47:35 ( 22.67, 140.83)
13 10/28/2021 14:35:23 ( 19.21, 165.60) 10/28/2021 14:37:59 ( 10.05, 163.45)
14 10/28/2021 16:15:54 ( 22.67, 141.08) 10/28/2021 16:17:44 ( 16.21, 139.51)
15 10/29/2021 03:25:00 ( 10.05, 148.59) 10/29/2021 03:28:35 ( 22.67, 145.58)
16 10/29/2021 15:56:53 ( 22.67, 145.83) 10/29/2021 16:00:28 ( 10.05, 142.83)
17 10/30/2021 03:05:59 ( 10.04, 153.34) 10/30/2021 03:09:34 ( 22.67, 150.33)
18 10/30/2021 15:37:53 ( 22.67, 150.59) 10/30/2021 15:41:28 ( 10.05, 147.58)
19 10/31/2021 02:46:59 ( 10.04, 158.09) 10/31/2021 02:50:34 ( 22.66, 155.09)
20 10/31/2021 15:18:52 ( 22.67, 155.34) 10/31/2021 15:22:27 ( 10.05, 152.33)
21 11/01/2021 02:27:58 ( 10.04, 162.85) 11/01/2021 02:31:33 ( 22.66, 159.84)
22 11/01/2021 14:59:52 ( 22.67, 160.09) 11/01/2021 15:03:27 ( 10.05, 157.09)
23 11/02/2021 02:11:24 ( 18.62, 165.59) 11/02/2021 02:12:33 ( 22.66, 164.60)
24 11/02/2021 03:50:28 ( 10.04, 142.23) 11/02/2021 03:53:43 ( 21.49, 139.51)
25 11/02/2021 14:40:51 ( 22.67, 164.85) 11/02/2021 14:44:26 ( 10.05, 161.84)
26 11/03/2021 03:31:27 ( 10.04, 146.98) 11/03/2021 03:35:02 ( 22.66, 143.97)
27 11/03/2021 16:03:21 ( 22.67, 144.23) 11/03/2021 16:06:56 ( 10.05, 141.22)
28 11/04/2021 03:12:27 ( 10.04, 151.73) 11/04/2021 03:16:02 ( 22.66, 148.73)
29 11/04/2021 15:44:20 ( 22.67, 148.98) 11/04/2021 15:47:55 ( 10.05, 145.97)
30 11/05/2021 02:53:26 ( 10.04, 156.49) 11/05/2021 02:57:01 ( 22.67, 153.48)
